Terminal Aerodrome Forecast
Issued by NWS Houston/Galveston TX

Home | Current Version | Previous Version | Text Only | Print | Product List | Glossary On
Versions: 1 2 3 4 5 6 7 8 9 10 11 12 13 14 15 16 17 18 19 20 21 22 23 24 25 26 27 28 29 30 31 32 33 34 35 36 37 38 39 40 41 42 43 44 45 46 47 48 49 50
000
FTUS44 KHGX 240529
TAFHOU
TAF
KHOU 240529Z 2406/2506 09006KT P6SM VCTS SCT045CB SCT050 BKN250
     FM240700 VRB04KT P6SM FEW020 BKN035
     FM241500 VRB05KT P6SM VCSH SCT030 PROB30 2418/2422 TSRA
      BKN050CB
     FM250000 17006KT P6SM SCT050 SCT250=

USA.gov is the U.S. government's official web portal to all federal, state and local government web resources and services.